New Bern, NC

9:56 PM EST on January 23, 2018 (GMT -0500)
Craven County Regional

Weather History for KEWN - December, 2012

Change the Weather History Date:

Saturday, December 15, 2012

  Actual Average Record
Temperature  
Mean Temperature 46 °F 47 °F  
Max Temperature 59 °F 57 °F 81 °F (1971)
Min Temperature 33 °F 36 °F 12 °F (1962)
Degree Days  
Heating Degree Days 19 18  
Month to date heating degree days 141 248  
Since 1 July heating degree days 690 675  
Cooling Degree Days 0 0  
Month to date cooling degree days 3 0  
Year to date cooling degree days 2028 1900  
Moisture  
Dew Point 40 °F    
Average Humidity 78    
Maximum Humidity 100    
Minimum Humidity 55    
Precipitation  
Precipitation T in 0.10 in 1.32 in (1976)
Month to date precipitation 1.71 1.63  
Year to date precipitation 49.38 50.98  
Snow  
Snow 0.00 in - - ()
Month to date snowfall 0.0  
Since 1 July snowfall 0.0  
Snow Depth 0.00 in    
Sea Level Pressure  
Sea Level Pressure 30.22 in    
Wind  
Wind Speed 2 mph (ENE)    
Max Wind Speed 8 mph    
Max Gust Speed 9 mph    
Visibility 7 miles    
Events Fog , Rain    
T = Trace of Precipitation, MM = Missing Value Source: NWS Daily Summary

Daily Weather History Graph

Daily Weather History Graph

Search for Another Location

Airport or City:

Trip Planner

Search our weather history database for the weather conditions in past years. The results will help you decide how hot, cold, wet, or windy it might be!

Date:

Astronomy

Dec. 15, 2012 Rise Set
Actual Time 7:09 AM EST 4:57 PM EST
Civil Twilight 6:41 AM EST 5:26 PM EST
Nautical Twilight 6:09 AM EST 5:57 PM EST
Astronomical Twilight 5:38 AM EST 6:28 PM EST
Moon 9:04 AM EST (12/15) 7:54 PM EST (12/15)
Length of Visible Light 10h 45m
Length of Day
9h 48m
Waxing Crescent, 8% of the Moon is Illuminated
Dec 15
Waxing Crescent
Dec 20
First Quarter
Dec 28
Full
Jan 4
Last Quarter
Jan 11
New

Hourly Weather History & Observations

Time (EST) Temp. Windchill Dew Point Humidity Pressure Visibility Wind Dir Wind Speed Gust Speed Precip Events Conditions
12:16 AM 35.6 °F - 33.8 °F 93% 30.27 in 0.8 mi Calm Calm - N/A   Mist
12:20 AM 35.6 °F - 33.8 °F 93% 30.27 in 0.5 mi Calm Calm - N/A Fog Fog
12:54 AM 34.0 °F - 34.0 °F 100% 30.27 in 0.2 mi Calm Calm - N/A Fog Fog
1:54 AM 35.1 °F - 34.0 °F 96% 30.26 in 0.2 mi Calm Calm - N/A Fog Fog
2:54 AM 37.9 °F - 37.0 °F 97% 30.26 in 0.2 mi Calm Calm - N/A Fog Fog
3:54 AM 39.0 °F - 39.0 °F 100% 30.25 in 0.2 mi Calm Calm - N/A Fog Fog
4:51 AM 37.4 °F - 37.4 °F 100% 30.26 in 0.8 mi Calm Calm - N/A   Clear
4:54 AM 39.0 °F - 37.9 °F 96% 30.26 in 1.0 mi Calm Calm - N/A   Clear
5:00 AM 39.2 °F - 37.4 °F 93% 30.26 in 2.5 mi Calm Calm - N/A   Partly Cloudy
5:11 AM 39.2 °F 37.0 °F 37.4 °F 93% 30.25 in 4.0 mi NE 3.5 mph - N/A   Partly Cloudy
5:54 AM 37.9 °F - 37.0 °F 97% 30.25 in 5.0 mi Calm Calm - N/A   Clear
6:54 AM 39.0 °F - 37.9 °F 96% 30.24 in 10.0 mi Calm Calm - N/A   Clear
7:54 AM 41.0 °F - 39.9 °F 96% 30.27 in 10.0 mi Calm Calm - N/A   Clear
8:54 AM 45.0 °F 42.6 °F 41.0 °F 86% 30.28 in 10.0 mi NE 4.6 mph - N/A   Clear
9:54 AM 46.9 °F - 42.1 °F 83% 30.28 in 10.0 mi NE 5.8 mph - N/A   Partly Cloudy
10:54 AM 48.9 °F - 41.0 °F 74% 30.28 in 10.0 mi NE 4.6 mph - N/A   Scattered Clouds
11:54 AM 53.1 °F - 43.0 °F 69% 30.24 in 10.0 mi East 4.6 mph - N/A   Clear
12:54 PM 55.9 °F - 42.1 °F 60% 30.22 in 10.0 mi NE 3.5 mph - N/A   Clear
1:54 PM 57.9 °F - 43.0 °F 58% 30.20 in 10.0 mi East 4.6 mph - N/A   Clear
2:54 PM 57.0 °F - 44.1 °F 62% 30.18 in 10.0 mi East 5.8 mph - N/A   Partly Cloudy
3:54 PM 57.0 °F - 41.0 °F 55% 30.19 in 10.0 mi East 5.8 mph - N/A   Mostly Cloudy
4:54 PM 55.0 °F - 42.1 °F 62% 30.19 in 10.0 mi ENE 4.6 mph - N/A   Mostly Cloudy
5:54 PM 48.9 °F - 42.1 °F 77% 30.19 in 10.0 mi Calm Calm - N/A   Clear
6:54 PM 53.1 °F - 41.0 °F 64% 30.18 in 10.0 mi Calm Calm - N/A   Overcast
7:54 PM 52.0 °F - 41.0 °F 66% 30.16 in 10.0 mi East 3.5 mph - N/A   Mostly Cloudy
8:54 PM 52.0 °F - 44.1 °F 74% 30.15 in 10.0 mi Calm Calm - N/A   Overcast
9:54 PM 53.1 °F - 45.0 °F 74% 30.13 in 10.0 mi SE 3.5 mph - N/A   Overcast
10:54 PM 54.0 °F - 46.9 °F 77% 30.12 in 10.0 mi Calm Calm - N/A   Overcast
11:54 PM 54.0 °F - 50.0 °F 86% 30.11 in 10.0 mi Calm Calm - 0.00 in Rain Light Rain